Meteo Giornale » Osservazioni meteo Italia » Venezia-Tessera

ore: 03:50 - Osservazioni Meteo Venezia-Tessera
Lat. 45° 30' N Lon. 12° 20' E Alt. 2 metri s.l.m.

nuvoloso Europe/Rome

18 °C

Nuvoloso

Temp. 24 Ore

17 °C

26 °C

Est

7.4 Km/h

Dew point 13 °C

Umidità 72 %

Visibilità  10 Km

Il sole sorge alle ore 05:30

Il sole tramonta alle ore 20:44

Data e Ora Cielo e Fenomeni T °C DP °C Um. % Pres. hPa Vis. km Vento km/h
Oggi h: 03:50 nuvoloso Nuvoloso 18 13 72 1012 10 E 7.4
Oggi h: 03:20 poco_nuvoloso Poco Nuvoloso 18 12 67 1011 10 N 13
Oggi h: 02:50 sereno Sereno 18 12 67 1011 10 N 14.8
Oggi h: 02:20 sereno Sereno 18 12 67 1012 10 N 16.7
Oggi h: 01:50 sereno Sereno 18 12 67 1011 10 N/NE 18.5
Oggi h: 01:20 sereno Sereno 19 13 68 1012 10 N/NE 20.3
Oggi h: 00:50 poco_nuvoloso Poco Nuvoloso 19 13 68 1012 10 N/NE 20.3
Oggi h: 00:20 nuvoloso Nuvoloso 20 12 59 1012 10 N 20.3
Ieri h: 23:50 poco_nuvoloso Poco Nuvoloso 21 12 56 1012 10 N 7.4
Ieri h: 23:20 sereno Sereno 21 12 56 1012 10 N 11.1
Ieri h: 22:50 sereno Sereno 22 13 56 1012 10 N 5.5
Ieri h: 22:20 sereno Sereno 22 11 49 1012 10 N 3.7
Ieri h: 21:50 sereno Sereno 22 13 56 1012 10 N 5.5
Ieri h: 20:50 sereno Sereno 21 14 64 1012 10 SO 7.4
Ieri h: 20:20 sereno Sereno 22 13 56 1012 10 SO 7.4
Ieri h: 19:50 sereno Sereno 23 13 53 1011 10 N 5.5
Ieri h: 19:20 sereno Sereno 24 11 43 1011 10 N 5.5
Ieri h: 18:50 sereno Sereno 24 13 50 1012 10 S/SE 7.4
Ieri h: 18:20 sereno Sereno 24 12 47 1012 10 S/SE 7.4
Ieri h: 17:50 sereno Sereno 24 12 47 1012 10 S/SE 11.1
Ieri h: 17:20 sereno Sereno 23 13 53 1012 10 SE 14.8
Ieri h: 16:50 sereno Sereno 24 13 50 1012 10 SE 13
Ieri h: 16:20 sereno Sereno 25 11 41 1012 10 S/SE 11.1
Ieri h: 15:50 sereno Sereno 25 11 41 1012 10 E/SE 16.7
Ieri h: 15:20 sereno Sereno 25 11 41 1013 10 SE 18.5
Ieri h: 14:50 sereno Sereno 25 13 47 1013 10 E/SE 18.5
Ieri h: 14:20 poco_nuvoloso Poco Nuvoloso 25 13 47 1013 10 E 16.7
Ieri h: 13:50 poco_nuvoloso Poco Nuvoloso 25 13 47 1013 10 E/SE 18.5
Ieri h: 13:20 poco_nuvoloso Poco Nuvoloso 26 13 44 1014 10 E/NE 18.5
Ieri h: 12:50 sereno Sereno 25 13 47 1014 10 E 14.8
Ieri h: 12:20 sereno Sereno 25 13 47 1014 10 E 14.8
Ieri h: 11:50 sereno Sereno 24 12 47 1014 10 E 18.5
Ieri h: 11:20 sereno Sereno 24 12 47 1014 10 E/NE 14.8
Ieri h: 10:50 sereno Sereno 23 12 49 1015 10 E/NE 20.3
Ieri h: 10:20 sereno Sereno 23 11 46 1015 10 E/NE 22.2
Ieri h: 09:50 sereno Sereno 23 12 49 1015 10 NE 22.2
Ieri h: 09:20 sereno Sereno 22 11 49 1015 10 NE 24
Ieri h: 08:50 sereno Sereno 21 12 56 1015 10 NE 22.2
Ieri h: 08:20 sereno Sereno 20 11 56 1015 10 N/NE 20.3
Ieri h: 07:50 sereno Sereno 19 11 59 1015 10 N/NE 18.5
Ieri h: 07:20 sereno Sereno 19 11 59 1015 10 N/NE 16.7
Ieri h: 06:50 sereno Sereno 17 11 67 1015 10 N 14.8
Ieri h: 06:20 sereno Sereno 17 11 67 1015 10 N/NE 14.8
Ieri h: 05:50 sereno Sereno 17 11 67 1015 10 N/NE 14.8
Ieri h: 05:20 sereno Sereno 17 11 67 1015 10 N/NE 13
Ieri h: 04:50 sereno Sereno 18 11 63 1015 10 N/NE 14.8